Current Weather Conditions: station 62162

sailwx.info

Wind from 190

Wave height 2.0 meters (6 feet)

Air temperature 5.4° C
Visibility: greater than 10.8 NM
Dewpoint -0.4° C

Last reported at 2020-Feb-28 15:00 UTC.
Time now 2020-Feb-28 16:01 UTC

Location: N 57°24' E 000°30'.
View on Google Maps.

See reports from other nearby stations

  
Tides and Currents Weather Stations Pressure Air Temp Water Temp Dewpoint Dewpoint Depression Visibility Wind Speed Wind Dir Waves Ship Positions
date/time (UTC)wind fromknots sea level pressurealtimeterstation pressurevisibilityair tempwater tempwave heightnotes
2020-Feb-28 15:00 190 10.8 5.4 2.0
2020-Feb-28 14:00 200 10.8 5.8 2.0
2020-Feb-28 13:00 200 10.8 5.8 2.1
2020-Feb-28 12:00 210 10.8 5.7 2.2
2020-Feb-28 11:00 220 10.8 5.8 2.3
2020-Feb-28 10:00 230 10.8 5.8 2.3
2020-Feb-28 09:00 240 10.8 5.7 2.4
2020-Feb-28 08:00 240 10.8 5.7 2.4
2020-Feb-28 07:00 240 10.8 5.3 2.4
2020-Feb-28 06:00 240 10.8 5.7 2.4
2020-Feb-28 05:00 270 10.8 7.0 2.5
2020-Feb-28 04:00 250 10.8 5.7 2.6
2020-Feb-28 03:00 260 10.8 7.3 2.4
2020-Feb-28 02:00 270 10.8 7.4 2.5
2020-Feb-28 01:00 280 10.8 6.8 2.7
2020-Feb-28 00:00 280 10.8 6.2 2.8
2020-Feb-27 23:00 290 10.8 6.5 2.5
2020-Feb-27 22:00 290 10.8 6.4 2.9
2020-Feb-27 21:00 280 10.8 6.2 2.9
2020-Feb-27 20:00 290 10.8 6.0 2.8
2020-Feb-27 19:00 290 10.8 5.7 2.9
2020-Feb-27 18:00 290 5.4 5.3 2.8
2020-Feb-27 17:00 310 10.8 3.9 2.3
2020-Feb-27 16:00 290 10.8 5.6 2.3
2020-Feb-27 15:00 280 10.8 5.4 2.1
2020-Feb-27 14:00 280 10.8 7.1 1.6
2020-Feb-27 13:00 270 10.8 6.7 1.4
2020-Feb-27 12:00 290 10.8 6.4 1.4
2020-Feb-27 11:00 280 10.8 6.2 1.2
2020-Feb-27 10:00 290 10.8 5.2 1.3
2020-Feb-27 09:00 270 10.8 5.7 1.4
2020-Feb-27 08:00 280 10.8 5.1 1.4
2020-Feb-27 07:00 280 10.8 5.1 1.5
2020-Feb-27 06:00 270 10.8 5.3 1.5
2020-Feb-27 05:00 270 10.8 5.2 1.5
2020-Feb-27 04:00 260 10.8 5.0 1.6
2020-Feb-27 03:00 260 10.8 4.0 1.6
2020-Feb-27 02:00 250 10.8 3.9 1.7
2020-Feb-27 01:00 260 10.8 4.3 1.6
2020-Feb-27 00:00 250 10.8 4.3 1.7
2020-Feb-26 23:00 270 10.8 6.8 1.8
2020-Feb-26 22:00 260 10.8 6.4 1.8
2020-Feb-26 21:00 270 10.8 6.3 1.9
2020-Feb-26 20:00 270 10.8 6.5 2.0
2020-Feb-26 19:00 280 10.8 5.1 2.1
2020-Feb-26 18:00 280 10.8 5.9 2.1
2020-Feb-26 17:00 290 10.8 5.0 2.1
2020-Feb-26 16:00 290 5.4 5.1 1.9